Time,TemperatureF,DewpointF,PressureIn,WindDirection,WindDirectionDegrees,WindSpeedMPH,WindSpeedGustMPH,Humidity,HourlyPrecipIn,Conditions,Clouds,dailyrainin,SoftwareType,DateUTC
2013-04-18 00:52:00,47.8,32.4,30.18,N/A,-737280,0.0,-999.0,55,0.00,,,0.00,Wunderground v.1.15,2013-04-18 07:52:00,
2013-04-18 00:57:00,47.8,32.4,30.18,N/A,-737280,0.0,-999.0,55,0.00,,,0.00,Wunderground v.1.15,2013-04-18 07:57:00,
2013-04-18 01:02:00,47.8,32.4,30.18,N/A,-737280,0.0,-999.0,55,0.00,,,0.00,Wunderground v.1.15,2013-04-18 08:02:00,
2013-04-18 01:07:00,47.8,32.4,30.18,N/A,-737280,0.0,-999.0,55,0.00,,,0.00,Wunderground v.1.15,2013-04-18 08:07:00,
2013-04-18 01:12:00,47.8,32.4,30.18,N/A,-737280,0.0,-999.0,55,0.00,,,0.00,Wunderground v.1.15,2013-04-18 08:12:00,
2013-04-18 01:17:00,47.4,32.5,30.18,N/A,-737280,0.0,-999.0,56,0.00,,,0.00,Wunderground v.1.15,2013-04-18 08:17:00,
2013-04-18 01:22:00,47.4,32.5,30.18,N/A,-737280,0.0,-999.0,56,0.00,,,0.00,Wunderground v.1.15,2013-04-18 08:22:00,
2013-04-18 01:27:00,47.4,32.5,30.18,N/A,-737280,0.0,-999.0,56,0.00,,,0.00,Wunderground v.1.15,2013-04-18 08:27:00,
2013-04-18 01:32:00,47.4,32.5,30.18,N/A,-737280,0.0,-999.0,56,0.00,,,0.00,Wunderground v.1.15,2013-04-18 08:32:00,
2013-04-18 01:37:00,47.4,32.5,30.18,N/A,-737280,0.0,-999.0,56,0.00,,,0.00,Wunderground v.1.15,2013-04-18 08:37:00,
2013-04-18 01:42:00,47.4,32.5,30.18,N/A,-737280,0.0,-999.0,56,0.00,,,0.00,Wunderground v.1.15,2013-04-18 08:42:00,
2013-04-18 01:47:00,48.2,30.4,30.18,N/A,-737280,0.0,-999.0,50,0.00,,,0.00,Wunderground v.1.15,2013-04-18 08:47:00,
2013-04-18 01:52:00,48.2,30.4,30.18,N/A,-737280,0.0,-999.0,50,0.00,,,0.00,Wunderground v.1.15,2013-04-18 08:52:00,
2013-04-18 01:57:00,48.2,30.4,30.18,N/A,-737280,0.0,-999.0,50,0.00,,,0.00,Wunderground v.1.15,2013-04-18 08:57:00,
2013-04-18 02:02:00,48.2,30.4,30.18,N/A,-737280,0.0,-999.0,50,0.00,,,0.00,Wunderground v.1.15,2013-04-18 09:02:00,
2013-04-18 02:07:00,48.2,30.4,30.18,N/A,-737280,0.0,-999.0,50,0.00,,,0.00,Wunderground v.1.15,2013-04-18 09:07:00,
2013-04-18 02:12:00,48.2,30.4,30.18,N/A,-737280,0.0,-999.0,50,0.00,,,0.00,Wunderground v.1.15,2013-04-18 09:12:00,
2013-04-18 02:17:00,49.1,28.1,30.18,N/A,-737280,0.0,-999.0,44,0.00,,,0.00,Wunderground v.1.15,2013-04-18 09:17:00,
2013-04-18 02:22:00,49.1,28.1,30.18,N/A,-737280,0.0,-999.0,44,0.00,,,0.00,Wunderground v.1.15,2013-04-18 09:22:00,
2013-04-18 02:27:00,49.1,28.1,30.18,N/A,-737280,0.0,-999.0,44,0.00,,,0.00,Wunderground v.1.15,2013-04-18 09:27:00,
2013-04-18 02:32:00,49.1,28.1,30.18,N/A,-737280,0.0,-999.0,44,0.00,,,0.00,Wunderground v.1.15,2013-04-18 09:32:00,
2013-04-18 02:37:00,49.1,28.1,30.18,N/A,-737280,0.0,-999.0,44,0.00,,,0.00,Wunderground v.1.15,2013-04-18 09:37:00,
2013-04-18 02:42:00,49.1,28.1,30.18,N/A,-737280,0.0,-999.0,44,0.00,,,0.00,Wunderground v.1.15,2013-04-18 09:42:00,
2013-04-18 02:47:00,50.0,27.2,30.18,N/A,-737280,0.0,-999.0,41,0.00,,,0.00,Wunderground v.1.15,2013-04-18 09:47:00,
2013-04-18 02:52:00,50.0,27.2,30.18,N/A,-737280,0.0,-999.0,41,0.00,,,0.00,Wunderground v.1.15,2013-04-18 09:52:00,
2013-04-18 02:57:00,50.0,27.2,30.18,N/A,-737280,0.0,-999.0,41,0.00,,,0.00,Wunderground v.1.15,2013-04-18 09:57:00,
2013-04-18 03:02:00,50.0,27.2,30.18,N/A,-737280,0.0,-999.0,41,0.00,,,0.00,Wunderground v.1.15,2013-04-18 10:02:00,
2013-04-18 03:07:00,50.0,27.2,30.18,N/A,-737280,0.0,-999.0,41,0.00,,,0.00,Wunderground v.1.15,2013-04-18 10:07:00,
2013-04-18 03:12:00,50.0,27.2,30.18,N/A,-737280,0.0,-999.0,41,0.00,,,0.00,Wunderground v.1.15,2013-04-18 10:12:00,
2013-04-18 03:17:00,47.0,27.8,30.18,N/A,-737280,0.0,-999.0,47,0.00,,,0.00,Wunderground v.1.15,2013-04-18 10:17:00,
2013-04-18 03:22:00,47.0,27.8,30.18,N/A,-737280,0.0,-999.0,47,0.00,,,0.00,Wunderground v.1.15,2013-04-18 10:22:00,
2013-04-18 03:27:00,47.0,27.8,30.18,N/A,-737280,0.0,-999.0,47,0.00,,,0.00,Wunderground v.1.15,2013-04-18 10:27:00,
2013-04-18 03:32:00,47.0,27.8,30.18,N/A,-737280,0.0,-999.0,47,0.00,,,0.00,Wunderground v.1.15,2013-04-18 10:32:00,
2013-04-18 03:37:00,47.0,27.8,30.18,N/A,-737280,0.0,-999.0,47,0.00,,,0.00,Wunderground v.1.15,2013-04-18 10:37:00,
2013-04-18 03:42:00,47.0,27.8,30.18,N/A,-737280,0.0,-999.0,47,0.00,,,0.00,Wunderground v.1.15,2013-04-18 10:42:00,
2013-04-18 03:47:00,47.2,27.5,30.18,N/A,-737280,0.0,-999.0,46,0.00,,,0.00,Wunderground v.1.15,2013-04-18 10:47:00,
2013-04-18 03:52:00,47.2,27.5,30.18,N/A,-737280,0.0,-999.0,46,0.00,,,0.00,Wunderground v.1.15,2013-04-18 10:52:00,
2013-04-18 03:57:00,47.2,27.5,30.18,N/A,-737280,0.0,-999.0,46,0.00,,,0.00,Wunderground v.1.15,2013-04-18 10:57:00,
2013-04-18 04:02:00,47.2,27.5,30.18,N/A,-737280,0.0,-999.0,46,0.00,,,0.00,Wunderground v.1.15,2013-04-18 11:02:00,
2013-04-18 04:07:00,47.2,27.5,30.18,N/A,-737280,0.0,-999.0,46,0.00,,,0.00,Wunderground v.1.15,2013-04-18 11:07:00,
2013-04-18 04:12:00,47.2,27.5,30.18,N/A,-737280,0.0,-999.0,46,0.00,,,0.00,Wunderground v.1.15,2013-04-18 11:12:00,
2013-04-18 04:17:00,51.2,25.8,30.19,NNW,338,0.0,-999.0,37,0.00,,,0.00,Wunderground v.1.15,2013-04-18 11:17:00,
2013-04-18 04:22:00,51.2,25.8,30.19,NNW,338,0.0,-999.0,37,0.00,,,0.00,Wunderground v.1.15,2013-04-18 11:22:00,
2013-04-18 04:27:00,51.2,25.8,30.19,NNW,338,0.0,-999.0,37,0.00,,,0.00,Wunderground v.1.15,2013-04-18 11:27:00,
2013-04-18 04:52:00,52.1,23.8,30.19,SE,131,0.0,0.0,33,0.00,,,0.00,Wunderground v.1.15,2013-04-18 11:52:00,
2013-04-18 04:58:00,53.0,23.1,30.19,ENE,61,1.0,1.0,31,0.00,,,0.00,Wunderground v.1.15,2013-04-18 11:58:00,
2013-04-18 05:04:00,53.5,22.0,30.20,East,96,0.0,3.0,29,0.00,,,0.00,Wunderground v.1.15,2013-04-18 12:04:00,
2013-04-18 05:10:00,53.7,22.2,30.20,ESE,117,0.0,0.0,29,0.00,,,0.00,Wunderground v.1.15,2013-04-18 12:10:00,
2013-04-18 05:16:00,54.0,20.7,30.20,SSE,157,0.0,0.0,27,0.00,,,0.00,Wunderground v.1.15,2013-04-18 12:16:00,
2013-04-18 05:22:00,54.5,21.2,30.20,East,94,1.0,1.0,27,0.00,,,0.00,Wunderground v.1.15,2013-04-18 12:22:00,
2013-04-18 05:28:00,55.3,21.0,30.20,NW,307,2.0,2.0,26,0.00,,,0.00,Wunderground v.1.15,2013-04-18 12:28:00,
2013-04-18 05:34:00,55.7,22.2,30.21,NW,315,2.0,3.0,27,0.00,,,0.00,Wunderground v.1.15,2013-04-18 12:34:00,
2013-04-18 05:40:00,56.0,20.6,30.20,ENE,60,1.0,3.0,25,0.00,,,0.00,Wunderground v.1.15,2013-04-18 12:40:00,
2013-04-18 05:46:00,56.1,19.8,30.21,ENE,68,1.0,3.0,24,0.00,,,0.00,Wunderground v.1.15,2013-04-18 12:46:00,
2013-04-18 05:52:00,55.9,19.6,30.21,NNE,22,1.0,3.0,24,0.00,,,0.00,Wunderground v.1.15,2013-04-18 12:52:00,
2013-04-18 05:58:00,55.3,20.0,30.21,ENE,65,0.0,3.0,25,0.00,,,0.00,Wunderground v.1.15,2013-04-18 12:58:00,
2013-04-18 06:04:00,54.7,19.5,30.22,ESE,105,0.0,2.0,25,0.00,,,0.00,Wunderground v.1.15,2013-04-18 13:04:00,
2013-04-18 06:10:00,54.3,19.2,30.22,SE,124,0.0,0.0,25,0.00,,,0.00,Wunderground v.1.15,2013-04-18 13:10:00,
2013-04-18 06:16:00,54.3,19.2,30.22,NW,325,0.0,1.0,25,0.00,,,0.00,Wunderground v.1.15,2013-04-18 13:16:00,
2013-04-18 06:22:00,54.9,18.7,30.22,ESE,108,1.0,1.0,24,0.00,,,0.00,Wunderground v.1.15,2013-04-18 13:22:00,
2013-04-18 06:28:00,55.3,20.0,30.22,NNE,12,1.0,1.0,25,0.00,,,0.00,Wunderground v.1.15,2013-04-18 13:28:00,
2013-04-18 06:34:00,55.5,20.2,30.22,NNW,337,1.0,12.0,25,0.00,,,0.00,Wunderground v.1.15,2013-04-18 13:34:00,
2013-04-18 06:40:00,55.8,19.5,30.23,ENE,60,2.0,2.0,24,0.00,,,0.00,Wunderground v.1.15,2013-04-18 13:40:00,
2013-04-18 06:46:00,55.9,20.5,30.23,NNW,328,2.0,12.0,25,0.00,,,0.00,Wunderground v.1.15,2013-04-18 13:46:00,
2013-04-18 06:52:00,56.3,20.9,30.23,NNW,333,2.0,5.0,25,0.00,,,0.00,Wunderground v.1.15,2013-04-18 13:52:00,
2013-04-18 06:58:00,56.7,20.3,30.23,NNW,333,2.0,12.0,24,0.00,,,0.00,Wunderground v.1.15,2013-04-18 13:58:00,
2013-04-18 07:04:00,57.1,19.6,30.23,NW,317,2.0,2.0,23,0.00,,,0.00,Wunderground v.1.15,2013-04-18 14:04:00,
2013-04-18 07:10:00,57.0,20.5,30.24,NNW,333,1.0,2.0,24,0.00,,,0.00,Wunderground v.1.15,2013-04-18 14:10:00,